• In Hungary
  • List of Countries
  • For 7 days
  • Water Temperature
  • Satellite Maps
  • Weather Map
  • News
  • Weather Widgets
  • user-avatar
    Login

    Hourly Weather Pavlushkovo

    Today, 22 June, Friday

    Time Temperature Precipitation Wind Pressure Humidity
    00:00 +16°C° 0 mm 3 mps 735 mmHg 91%
    01:00 +16°C° 0 mm 3 mps 735 mmHg 90%
    02:00 +16°C° 0 mm 3 mps 735 mmHg 89%
    03:00 +17°C° 0 mm 4 mps 734 mmHg 87%
    04:00 +17°C° 0 mm 4 mps 734 mmHg 84%
    05:00 +18°C° 0 mm 4 mps 734 mmHg 81%
    06:00 +19°C° 0.1 mm 5 mps 733 mmHg 78%
    07:00 +20°C° 0.1 mm 5 mps 733 mmHg 76%
    08:00 +21°C° 0.1 mm 5 mps 733 mmHg 74%
    09:00 +22°C° 0.3 mm 5 mps 733 mmHg 76%
    10:00 +23°C° 0.3 mm 5 mps 733 mmHg 78%
    11:00 +23°C° 0.3 mm 5 mps 733 mmHg 80%
    12:00 +22°C° 0.9 mm 5 mps 733 mmHg 84%
    13:00 +21°C° 0.9 mm 4 mps 733 mmHg 88%
    14:00 +21°C° 0.9 mm 4 mps 733 mmHg 92%
    15:00 +20°C° 0.3 mm 3 mps 733 mmHg 88%
    16:00 +20°C° 0.3 mm 3 mps 734 mmHg 85%
    17:00 +20°C° 0.3 mm 3 mps 734 mmHg 81%
    18:00 +19°C° 0 mm 2 mps 734 mmHg 83%
    19:00 +18°C° 0 mm 2 mps 734 mmHg 84%
    20:00 +17°C° 0 mm 2 mps 735 mmHg 86%
    21:00 +15°C° 0 mm 2 mps 735 mmHg 88%
    22:00 +14°C° 0 mm 2 mps 735 mmHg 89%
    23:00 +13°C° 0 mm 2 mps 736 mmHg 91%

    Tomorrow, 23 June, Saturday

    Time Temperature Precipitation Wind Pressure Humidity
    00:00 +12°C° 0 mm 2 mps 736 mmHg 91%
    01:00 +12°C° 0 mm 2 mps 736 mmHg 90%
    02:00 +11°C° 0 mm 1 mps 737 mmHg 89%
    03:00 +12°C° 0 mm 1 mps 737 mmHg 86%
    04:00 +12°C° 0 mm 1 mps 737 mmHg 83%
    05:00 +13°C° 0 mm 1 mps 738 mmHg 80%
    06:00 +14°C° 0 mm 1 mps 738 mmHg 76%
    07:00 +15°C° 0 mm 1 mps 738 mmHg 73%
    08:00 +16°C° 0 mm 1 mps 738 mmHg 70%
    09:00 +16°C° 0.2 mm 1 mps 738 mmHg 74%
    10:00 +15°C° 0.2 mm 1 mps 737 mmHg 78%
    11:00 +15°C° 0.2 mm 1 mps 737 mmHg 82%
    12:00 +15°C° 0.6 mm 2 mps 737 mmHg 85%
    13:00 +15°C° 0.6 mm 2 mps 737 mmHg 88%
    14:00 +14°C° 0.6 mm 3 mps 736 mmHg 90%
    15:00 +13°C° 0.6 mm 3 mps 736 mmHg 92%
    16:00 +13°C° 0.6 mm 3 mps 736 mmHg 94%
    17:00 +12°C° 0.6 mm 3 mps 735 mmHg 96%
    18:00 +12°C° 1.5 mm 3 mps 735 mmHg 96%
    19:00 +12°C° 1.5 mm 3 mps 734 mmHg 97%
    20:00 +11°C° 1.5 mm 4 mps 734 mmHg 97%
    21:00 +11°C° 2.5 mm 4 mps 734 mmHg 97%
    22:00 +11°C° 2.5 mm 4 mps 733 mmHg 98%
    23:00 +11°C° 2.5 mm 4 mps 733 mmHg 98%

    Day after tomorrow, 24 June, Sunday

    Time Temperature Precipitation Wind Pressure Humidity
    00:00 +11°C° 2.7 mm 3 mps 732 mmHg 98%
    01:00 +12°C° 2.7 mm 3 mps 732 mmHg 98%
    02:00 +12°C° 2.7 mm 3 mps 732 mmHg 98%
    03:00 +12°C° 0.3 mm 3 mps 732 mmHg 98%
    04:00 +13°C° 0.3 mm 2 mps 732 mmHg 98%
    05:00 +13°C° 0.3 mm 2 mps 731 mmHg 98%
    06:00 +13°C° 0.1 mm 2 mps 732 mmHg 97%
    07:00 +14°C° 0.1 mm 2 mps 732 mmHg 96%
    08:00 +15°C° 0.1 mm 2 mps 732 mmHg 95%
    09:00 +15°C° 0.3 mm 2 mps 732 mmHg 95%
    10:00 +16°C° 0.3 mm 2 mps 732 mmHg 94%
    11:00 +17°C° 0.3 mm 2 mps 732 mmHg 94%
    12:00 +17°C° 0.3 mm 3 mps 732 mmHg 93%
    13:00 +17°C° 0.3 mm 4 mps 732 mmHg 91%
    14:00 +16°C° 0.3 mm 5 mps 732 mmHg 90%
    15:00 +15°C° 0.1 mm 5 mps 733 mmHg 88%
    16:00 +14°C° 0.1 mm 5 mps 733 mmHg 85%
    17:00 +13°C° 0.1 mm 5 mps 734 mmHg 82%
    18:00 +12°C° 0 mm 5 mps 735 mmHg 82%
    19:00 +12°C° 0 mm 5 mps 735 mmHg 82%
    20:00 +10°C° 0 mm 5 mps 736 mmHg 82%
    21:00 +11°C° 0 mm 4 mps 737 mmHg 84%
    22:00 +10°C° 0 mm 4 mps 737 mmHg 87%
    23:00 +10°C° 0 mm 4 mps 738 mmHg 89%

    25 June, Monday

    Time Temperature Precipitation Wind Pressure Humidity
    00:00 +9°C° 0 mm 3 mps 738 mmHg 92%
    01:00 +9°C° 0 mm 3 mps 739 mmHg 94%
    02:00 +8°C° 0 mm 2 mps 739 mmHg 96%
    03:00 +9°C° 0 mm 2 mps 739 mmHg 95%
    04:00 +9°C° 0 mm 2 mps 740 mmHg 93%
    05:00 +9°C° 0 mm 2 mps 740 mmHg 92%
    06:00 +12°C° 0 mm 2 mps 740 mmHg 84%
    07:00 +14°C° 0 mm 2 mps 741 mmHg 76%
    08:00 +16°C° 0 mm 2 mps 741 mmHg 69%
    09:00 +18°C° 0 mm 2 mps 741 mmHg 64%
    10:00 +19°C° 0 mm 3 mps 741 mmHg 60%
    11:00 +20°C° 0 mm 3 mps 741 mmHg 55%
    12:00 +20°C° 0.2 mm 3 mps 741 mmHg 56%
    13:00 +21°C° 0.2 mm 3 mps 741 mmHg 56%
    14:00 +21°C° 0.2 mm 3 mps 741 mmHg 56%
    15:00 +21°C° 0.3 mm 2 mps 741 mmHg 61%
    16:00 +20°C° 0.3 mm 2 mps 741 mmHg 66%
    17:00 +20°C° 0.3 mm 2 mps 741 mmHg 71%
    18:00 +19°C° 0.2 mm 1 mps 741 mmHg 77%
    19:00 +18°C° 0.2 mm 1 mps 742 mmHg 82%
    20:00 +15°C° 0.2 mm 1 mps 742 mmHg 88%
    21:00 +14°C° 0.1 mm 1 mps 742 mmHg 90%
    22:00 +13°C° 0.1 mm 1 mps 742 mmHg 92%
    23:00 +12°C° 0.1 mm 1 mps 742 mmHg 94%

    26 June, Tuesday

    Time Temperature Precipitation Wind Pressure Humidity
    00:00 +12°C° 0 mm 1 mps 742 mmHg 95%
    01:00 +11°C° 0 mm 1 mps 742 mmHg 96%
    02:00 +11°C° 0 mm 1 mps 742 mmHg 96%
    03:00 +11°C° 0 mm 1 mps 742 mmHg 96%
    04:00 +12°C° 0 mm 1 mps 743 mmHg 96%
    05:00 +12°C° 0 mm 1 mps 743 mmHg 96%
    06:00 +14°C° 0 mm 1 mps 743 mmHg 89%
    07:00 +16°C° 0 mm 2 mps 743 mmHg 83%
    08:00 +17°C° 0 mm 2 mps 743 mmHg 77%
    09:00 +18°C° 0.2 mm 2 mps 743 mmHg 71%
    10:00 +19°C° 0.2 mm 2 mps 743 mmHg 66%
    11:00 +20°C° 0.2 mm 3 mps 743 mmHg 61%
    12:00 +20°C° 0.4 mm 3 mps 743 mmHg 62%
    13:00 +21°C° 0.4 mm 3 mps 743 mmHg 63%
    14:00 +21°C° 0.4 mm 3 mps 743 mmHg 64%
    15:00 +20°C° 0.3 mm 3 mps 743 mmHg 66%
    16:00 +20°C° 0.3 mm 2 mps 743 mmHg 67%
    17:00 +20°C° 0.3 mm 2 mps 743 mmHg 69%
    18:00 +19°C° 0.1 mm 2 mps 743 mmHg 75%
    19:00 +18°C° 0.1 mm 1 mps 743 mmHg 81%
    20:00 +16°C° 0.1 mm 1 mps 743 mmHg 87%
    21:00 +15°C° 0 mm 1 mps 743 mmHg 89%
    22:00 +14°C° 0 mm 1 mps 743 mmHg 91%
    23:00 +13°C° 0 mm 1 mps 743 mmHg 94%

    27 June, Wednesday

    Time Temperature Precipitation Wind Pressure Humidity
    00:00 +12°C° 0 mm 1 mps 743 mmHg 94%
    01:00 +12°C° 0 mm 1 mps 743 mmHg 94%
    02:00 +10°C° 0 mm 0 mps 743 mmHg 94%
    03:00 +11°C° 0 mm 0 mps 744 mmHg 92%
    04:00 +12°C° 0 mm 0 mps 744 mmHg 91%
    05:00 +14°C° 0 mm 1 mps 744 mmHg 89%
    06:00 +16°C° 0 mm 1 mps 744 mmHg 81%
    07:00 +19°C° 0 mm 1 mps 744 mmHg 74%
    08:00 +21°C° 0 mm 1 mps 744 mmHg 66%
    09:00 +21°C° 0 mm 2 mps 744 mmHg 60%
    10:00 +23°C° 0 mm 2 mps 744 mmHg 54%
    11:00 +24°C° 0 mm 2 mps 744 mmHg 49%
    12:00 +25°C° 0 mm 2 mps 744 mmHg 48%
    13:00 +25°C° 0 mm 2 mps 744 mmHg 48%
    14:00 +25°C° 0 mm 2 mps 743 mmHg 47%
    15:00 +25°C° 0 mm 1 mps 743 mmHg 50%
    16:00 +25°C° 0 mm 1 mps 743 mmHg 52%
    17:00 +25°C° 0 mm 1 mps 743 mmHg 55%
    18:00 +23°C° 0 mm 1 mps 743 mmHg 61%
    19:00 +21°C° 0 mm 1 mps 743 mmHg 68%
    20:00 +20°C° 0 mm 1 mps 743 mmHg 75%
    21:00 +19°C° 0 mm 1 mps 743 mmHg 76%
    22:00 +18°C° 0 mm 1 mps 743 mmHg 78%
    23:00 +17°C° 0 mm 2 mps 743 mmHg 80%
    Show more